Time,TemperatureF,DewpointF,PressureIn,WindDirection,WindDirectionDegrees,WindSpeedMPH,WindSpeedGustMPH,Humidity,HourlyPrecipIn,Conditions,Clouds,dailyrainin,SoftwareType,DateUTC
2013-01-16 00:11:00,28.7,25.0,30.25,NNW,347,0.0,0.0,84,0.00,,,0.00,weatherlink.com 1.10,2013-01-16 05:11:00,
2013-01-16 00:26:00,28.6,24.0,30.24,NNW,347,0.0,0.0,84,0.00,,,0.00,weatherlink.com 1.10,2013-01-16 05:26:00,
2013-01-16 00:41:00,28.9,25.0,30.24,NNW,347,0.0,0.0,84,0.00,,,0.00,weatherlink.com 1.10,2013-01-16 05:41:00,
2013-01-16 00:56:00,28.9,25.0,30.25,NNW,347,0.0,0.0,84,0.00,,,0.00,weatherlink.com 1.10,2013-01-16 05:56:00,
2013-01-16 01:11:00,28.7,25.0,30.26,NNW,347,0.0,1.0,85,0.00,,,0.00,weatherlink.com 1.10,2013-01-16 06:11:00,
2013-01-16 01:26:00,28.6,25.0,30.24,NNW,347,0.0,0.0,85,0.00,,,0.00,weatherlink.com 1.10,2013-01-16 06:26:00,
2013-01-16 01:42:00,28.7,25.0,30.24,NNW,347,0.0,0.0,85,0.00,,,0.00,weatherlink.com 1.10,2013-01-16 06:42:00,
2013-01-16 01:57:00,28.9,24.0,30.24,NNW,347,0.0,1.0,83,0.00,,,0.00,weatherlink.com 1.10,2013-01-16 06:57:00,
2013-01-16 02:12:00,29.2,24.0,30.24,NNW,347,0.0,0.0,82,0.00,,,0.00,weatherlink.com 1.10,2013-01-16 07:12:00,
2013-01-16 02:27:00,29.2,24.0,30.24,NNW,347,0.0,0.0,82,0.00,,,0.00,weatherlink.com 1.10,2013-01-16 07:27:00,
2013-01-16 02:42:00,29.2,25.0,30.24,NNW,347,0.0,0.0,84,0.00,,,0.00,weatherlink.com 1.10,2013-01-16 07:42:00,
2013-01-16 02:57:00,29.1,25.0,30.24,NNW,347,0.0,0.0,83,0.00,,,0.00,weatherlink.com 1.10,2013-01-16 07:57:00,
2013-01-16 03:12:00,29.1,25.0,30.23,NNW,347,0.0,0.0,83,0.00,,,0.00,weatherlink.com 1.10,2013-01-16 08:12:00,
2013-01-16 03:27:00,29.1,25.0,30.21,NNW,347,0.0,0.0,83,0.00,,,0.00,weatherlink.com 1.10,2013-01-16 08:27:00,
2013-01-16 03:42:00,29.2,25.0,30.20,NNW,347,0.0,0.0,84,0.00,,,0.00,weatherlink.com 1.10,2013-01-16 08:42:00,
2013-01-16 03:57:00,29.2,25.0,30.19,NNW,347,0.0,0.0,85,0.00,,,0.00,weatherlink.com 1.10,2013-01-16 08:57:00,
2013-01-16 04:12:00,29.2,25.0,30.19,NNW,347,0.0,0.0,84,0.00,,,0.00,weatherlink.com 1.10,2013-01-16 09:12:00,
2013-01-16 04:27:00,29.3,25.0,30.18,NNW,347,0.0,0.0,84,0.00,,,0.00,weatherlink.com 1.10,2013-01-16 09:27:00,
2013-01-16 04:42:00,29.3,25.0,30.17,NNW,347,0.0,0.0,85,0.00,,,0.00,weatherlink.com 1.10,2013-01-16 09:42:00,
2013-01-16 04:57:00,28.8,25.0,30.16,SSW,208,0.0,1.0,85,0.00,,,0.00,weatherlink.com 1.10,2013-01-16 09:57:00,
2013-01-16 05:12:00,28.3,25.0,30.16,WSW,245,1.0,1.0,88,0.00,,,0.00,weatherlink.com 1.10,2013-01-16 10:12:00,
2013-01-16 05:27:00,28.0,26.0,30.17,NW,321,1.0,2.0,90,0.00,,,0.00,weatherlink.com 1.10,2013-01-16 10:27:00,
2013-01-16 05:42:00,27.8,26.0,30.16,NW,321,0.0,0.0,91,0.00,,,0.00,weatherlink.com 1.10,2013-01-16 10:42:00,
2013-01-16 05:57:00,27.8,26.0,30.16,NW,321,0.0,0.0,91,0.00,,,0.00,weatherlink.com 1.10,2013-01-16 10:57:00,
2013-01-16 06:12:00,27.7,26.0,30.15,SSW,200,0.0,0.0,92,0.00,,,0.00,weatherlink.com 1.10,2013-01-16 11:12:00,
2013-01-16 06:27:00,27.6,26.0,30.14,SSW,200,0.0,0.0,92,0.00,,,0.00,weatherlink.com 1.10,2013-01-16 11:27:00,
2013-01-16 06:42:00,27.6,26.0,30.14,SSW,200,0.0,0.0,92,0.00,,,0.00,weatherlink.com 1.10,2013-01-16 11:42:00,
2013-01-16 06:57:00,27.7,26.0,30.14,SSW,200,0.0,0.0,93,0.00,,,0.00,weatherlink.com 1.10,2013-01-16 11:57:00,
2013-01-16 07:12:00,27.7,26.0,30.14,SSW,200,0.0,0.0,93,0.00,,,0.00,weatherlink.com 1.10,2013-01-16 12:12:00,
2013-01-16 07:27:00,27.7,26.0,30.13,SSW,200,0.0,0.0,93,0.00,,,0.00,weatherlink.com 1.10,2013-01-16 12:27:00,
2013-01-16 07:42:00,27.8,26.0,30.12,SSW,200,0.0,0.0,93,0.00,,,0.00,weatherlink.com 1.10,2013-01-16 12:42:00,
2013-01-16 07:57:00,28.0,26.0,30.11,SSW,200,0.0,0.0,93,0.00,,,0.00,weatherlink.com 1.10,2013-01-16 12:57:00,
2013-01-16 08:12:00,28.1,26.0,30.11,SSW,200,0.0,0.0,93,0.00,,,0.00,weatherlink.com 1.10,2013-01-16 13:12:00,
2013-01-16 08:27:00,28.1,26.0,30.12,SW,224,0.0,0.0,93,0.00,,,0.00,weatherlink.com 1.10,2013-01-16 13:27:00,
2013-01-16 08:42:00,28.3,27.0,30.10,West,266,0.0,1.0,93,0.00,,,0.00,weatherlink.com 1.10,2013-01-16 13:42:00,
2013-01-16 08:57:00,28.5,27.0,30.09,West,266,0.0,0.0,93,0.00,,,0.00,weatherlink.com 1.10,2013-01-16 13:57:00,
2013-01-16 09:12:00,28.7,27.0,30.09,West,266,0.0,0.0,93,0.00,,,0.00,weatherlink.com 1.10,2013-01-16 14:12:00,
2013-01-16 09:27:00,28.9,27.0,30.07,West,266,0.0,0.0,93,0.00,,,0.00,weatherlink.com 1.10,2013-01-16 14:27:00,
2013-01-16 09:42:00,29.1,27.0,30.06,NW,310,0.0,0.0,93,0.00,,,0.00,weatherlink.com 1.10,2013-01-16 14:42:00,
2013-01-16 09:57:00,29.4,28.0,30.03,NW,305,0.0,1.0,93,0.00,,,0.00,weatherlink.com 1.10,2013-01-16 14:57:00,
2013-01-16 10:12:00,29.8,28.0,30.03,NW,310,0.0,1.0,92,0.00,,,0.00,weatherlink.com 1.10,2013-01-16 15:12:00,
2013-01-16 10:27:00,29.5,28.0,30.04,NNW,339,0.0,2.0,92,0.00,,,0.00,weatherlink.com 1.10,2013-01-16 15:27:00,
2013-01-16 10:42:00,29.6,28.0,30.03,North,354,0.0,1.0,92,0.00,,,0.00,weatherlink.com 1.10,2013-01-16 15:42:00,
2013-01-16 10:58:00,29.7,28.0,30.02,West,279,0.0,1.0,92,0.00,,,0.00,weatherlink.com 1.10,2013-01-16 15:58:00,
2013-01-16 11:13:00,29.7,28.0,29.99,NW,313,0.0,1.0,92,0.00,,,0.00,weatherlink.com 1.10,2013-01-16 16:13:00,
2013-01-16 11:28:00,29.8,28.0,29.98,NW,316,0.0,1.0,92,0.00,,,0.00,weatherlink.com 1.10,2013-01-16 16:28:00,
2013-01-16 11:43:00,29.8,28.0,29.97,NW,316,0.0,0.0,92,0.00,,,0.00,weatherlink.com 1.10,2013-01-16 16:43:00,
2013-01-16 11:58:00,29.9,28.0,29.96,NW,313,0.0,1.0,92,0.00,,,0.00,weatherlink.com 1.10,2013-01-16 16:58:00,
2013-01-16 12:13:00,30.0,28.0,29.95,NNW,345,0.0,3.0,92,0.00,,,0.00,weatherlink.com 1.10,2013-01-16 17:13:00,
2013-01-16 12:28:00,30.1,28.0,29.95,NW,322,0.0,1.0,92,0.00,,,0.00,weatherlink.com 1.10,2013-01-16 17:28:00,
2013-01-16 12:43:00,30.0,28.0,29.94,NW,311,0.0,0.0,93,0.00,,,0.00,weatherlink.com 1.10,2013-01-16 17:43:00,
2013-01-16 12:58:00,30.2,28.0,29.95,NW,325,0.0,2.0,92,0.00,,,0.00,weatherlink.com 1.10,2013-01-16 17:58:00,
2013-01-16 13:13:00,30.3,28.0,29.93,NW,324,0.0,2.0,92,0.00,,,0.00,weatherlink.com 1.10,2013-01-16 18:13:00,
2013-01-16 13:28:00,30.8,29.0,29.93,WSW,242,0.0,1.0,92,0.00,,,0.00,weatherlink.com 1.10,2013-01-16 18:28:00,
2013-01-16 13:43:00,30.7,29.0,29.89,NW,318,0.0,1.0,92,0.00,,,0.00,weatherlink.com 1.10,2013-01-16 18:43:00,
2013-01-16 13:58:00,31.2,29.0,29.85,North,352,0.0,1.0,92,0.00,,,0.00,weatherlink.com 1.10,2013-01-16 18:58:00,
2013-01-16 14:13:00,31.0,29.0,29.87,NNW,345,0.0,1.0,92,0.00,,,0.00,weatherlink.com 1.10,2013-01-16 19:13:00,
2013-01-16 14:28:00,30.9,29.0,29.88,NNW,335,0.0,1.0,92,0.00,,,0.00,weatherlink.com 1.10,2013-01-16 19:28:00,
2013-01-16 14:43:00,30.9,29.0,29.88,NNE,17,0.0,1.0,92,0.00,,,0.00,weatherlink.com 1.10,2013-01-16 19:43:00,
2013-01-16 14:58:00,30.7,29.0,29.87,NNW,329,0.0,2.0,92,0.00,,,0.00,weatherlink.com 1.10,2013-01-16 19:58:00,
2013-01-16 15:13:00,30.5,29.0,29.89,North,350,0.0,1.0,92,0.00,,,0.00,weatherlink.com 1.10,2013-01-16 20:13:00,
2013-01-16 15:28:00,30.5,29.0,29.87,NNW,338,0.0,2.0,93,0.00,,,0.00,weatherlink.com 1.10,2013-01-16 20:28:00,
2013-01-16 15:43:00,30.2,29.0,29.87,NW,316,0.0,2.0,93,0.00,,,0.00,weatherlink.com 1.10,2013-01-16 20:43:00,
2013-01-16 15:58:00,30.1,28.0,29.88,North,1,0.0,1.0,93,0.00,,,0.00,weatherlink.com 1.10,2013-01-16 20:58:00,
2013-01-16 16:13:00,30.0,28.0,29.87,NNW,331,0.0,1.0,93,0.00,,,0.00,weatherlink.com 1.10,2013-01-16 21:13:00,
2013-01-16 16:28:00,30.0,28.0,29.88,NNW,333,0.0,0.0,93,0.00,,,0.00,weatherlink.com 1.10,2013-01-16 21:28:00,
2013-01-16 16:43:00,29.9,28.0,29.87,NNW,333,0.0,1.0,93,0.00,,,0.00,weatherlink.com 1.10,2013-01-16 21:43:00,
2013-01-16 16:58:00,29.8,28.0,29.87,NNW,333,0.0,0.0,93,0.00,,,0.00,weatherlink.com 1.10,2013-01-16 21:58:00,
2013-01-16 17:13:00,29.8,28.0,29.87,NNW,333,0.0,1.0,93,0.00,,,0.00,weatherlink.com 1.10,2013-01-16 22:13:00,
2013-01-16 17:28:00,29.7,28.0,29.86,NNW,336,0.0,1.0,93,0.00,,,0.00,weatherlink.com 1.10,2013-01-16 22:28:00,
2013-01-16 17:43:00,29.7,28.0,29.87,NNW,336,0.0,1.0,94,0.00,,,0.00,weatherlink.com 1.10,2013-01-16 22:43:00,
2013-01-16 17:58:00,29.7,28.0,29.86,NNW,336,0.0,0.0,94,0.00,,,0.00,weatherlink.com 1.10,2013-01-16 22:58:00,
2013-01-16 18:13:00,29.6,28.0,29.85,NNW,336,0.0,0.0,94,0.00,,,0.00,weatherlink.com 1.10,2013-01-16 23:13:00,
2013-01-16 18:28:00,29.2,28.0,29.84,NNW,336,0.0,0.0,93,0.00,,,0.00,weatherlink.com 1.10,2013-01-16 23:28:00,
2013-01-16 18:43:00,28.7,27.0,29.83,NNW,335,0.0,0.0,94,0.00,,,0.00,weatherlink.com 1.10,2013-01-16 23:43:00,
2013-01-16 18:58:00,28.5,27.0,29.85,NNW,336,0.0,1.0,94,0.00,,,0.00,weatherlink.com 1.10,2013-01-16 23:58:00,
2013-01-16 19:13:00,28.6,27.0,29.85,NNW,336,0.0,1.0,94,0.00,,,0.00,weatherlink.com 1.10,2013-01-17 00:13:00,
2013-01-16 19:28:00,28.8,27.0,29.85,NNW,336,0.0,1.0,94,0.00,,,0.00,weatherlink.com 1.10,2013-01-17 00:28:00,
2013-01-16 19:43:00,28.8,27.0,29.85,NNW,336,0.0,0.0,94,0.00,,,0.00,weatherlink.com 1.10,2013-01-17 00:43:00,
2013-01-16 19:58:00,28.8,27.0,29.85,NNW,336,0.0,0.0,94,0.00,,,0.00,weatherlink.com 1.10,2013-01-17 00:58:00,
2013-01-16 20:13:00,28.5,27.0,29.84,NNW,335,0.0,0.0,94,0.00,,,0.00,weatherlink.com 1.10,2013-01-17 01:13:00,
2013-01-16 20:28:00,28.6,27.0,29.84,NNW,335,0.0,0.0,95,0.00,,,0.00,weatherlink.com 1.10,2013-01-17 01:28:00,
2013-01-16 20:43:00,28.5,27.0,29.84,NNW,335,0.0,0.0,95,0.00,,,0.00,weatherlink.com 1.10,2013-01-17 01:43:00,
2013-01-16 20:58:00,28.4,27.0,29.84,NNW,335,0.0,0.0,94,0.00,,,0.00,weatherlink.com 1.10,2013-01-17 01:58:00,
2013-01-16 21:13:00,28.2,27.0,29.83,NNW,336,0.0,0.0,94,0.00,,,0.00,weatherlink.com 1.10,2013-01-17 02:13:00,
2013-01-16 21:28:00,28.2,27.0,29.83,NNW,336,0.0,0.0,95,0.00,,,0.00,weatherlink.com 1.10,2013-01-17 02:28:00,
2013-01-16 21:43:00,28.2,27.0,29.82,NNW,336,0.0,1.0,95,0.00,,,0.00,weatherlink.com 1.10,2013-01-17 02:43:00,
2013-01-16 21:58:00,28.2,27.0,29.82,NNW,335,0.0,0.0,95,0.00,,,0.00,weatherlink.com 1.10,2013-01-17 02:58:00,
2013-01-16 22:13:00,28.2,27.0,29.82,NNW,336,0.0,0.0,95,0.00,,,0.00,weatherlink.com 1.10,2013-01-17 03:13:00,
2013-01-16 22:28:00,28.2,27.0,29.82,NNW,336,0.0,0.0,95,0.00,,,0.00,weatherlink.com 1.10,2013-01-17 03:28:00,
2013-01-16 22:43:00,28.2,27.0,29.82,NNW,335,0.0,0.0,95,0.00,,,0.00,weatherlink.com 1.10,2013-01-17 03:43:00,
2013-01-16 22:58:00,28.2,27.0,29.82,NNW,336,0.0,0.0,95,0.00,,,0.00,weatherlink.com 1.10,2013-01-17 03:58:00,
2013-01-16 23:13:00,27.8,26.0,29.82,NNW,336,0.0,0.0,94,0.00,,,0.00,weatherlink.com 1.10,2013-01-17 04:13:00,
2013-01-16 23:28:00,27.2,26.0,29.81,NNW,335,0.0,0.0,94,0.00,,,0.00,weatherlink.com 1.10,2013-01-17 04:28:00,
2013-01-16 23:43:00,26.5,25.0,29.82,NNW,336,0.0,0.0,94,0.00,,,0.00,weatherlink.com 1.10,2013-01-17 04:43:00,
2013-01-16 23:59:00,25.7,24.0,29.82,NNW,335,0.0,0.0,94,0.00,,,0.00,weatherlink.com 1.10,2013-01-17 04:59:00,